{"data":{"norad_id":69401,"intl_designator":"2026-125A","name":"QIANFAN-183","alt_names":[],"object_type":"PAYLOAD","status":"ACTIVE","operator":null,"country":"PRC","launch_date":"2026-06-05","launch_site_code":"WSC","launch_vehicle":null,"mission":null,"orbit_class":"UNKNOWN","rcs_meters":null,"size_class":null,"mass_kg":null,"dimensions":null,"purposes":[],"wikipedia_slug":null,"has_3d_model":false,"image_url":null,"decayed_at":null,"tle_current":{"epoch":"2026-09-20T03:48:23.954112Z","epoch_age_seconds":64001,"freshness":"FRESH","line1":"1 69401U 26125A   26263.15861058  .00000029  00000+0  26145-4 0  9991","line2":"2 69401  88.9832 270.3386 0002047 101.4729 258.6652 13.51027474 14762","mean_motion":13.51027474,"eccentricity":0.0002047,"inclination_deg":88.9832,"raan_deg":270.3386,"arg_perigee_deg":101.4729,"mean_anomaly_deg":258.6652,"bstar":2.6145e-5,"rev_number":1476,"period_min":106.58554527663,"perigee_km":1066.9563064461,"apogee_km":1070.0049517034,"semimajor_km":7446.6176290748,"source":"CELESTRAK","updated_at":"2026-09-20T09:00:24.864200Z"}}}